| time (UTC) | temp F | wind direction | speed MPH | gust MPH | rain 1hr in | rain 24hr in | rain mn in | humidity % | barometer mb |
| 20260504025643 | 56 | 186 | 2.0 | 7.0 | 0.00 | 0.00 | 0.00 | 51 | 1007.2 |
| 20260504024631 | 56 | 179 | 3.0 | 8.0 | 0.00 | 0.00 | 0.00 | 50 | 1007.2 |
| 20260504023619 | 57 | 169 | 3.0 | 9.0 | 0.00 | 0.00 | 0.00 | 50 | 1007.1 |
| 20260504023113 | 57 | 187 | 3.0 | 6.0 | 0.00 | 0.00 | 0.00 | 50 | 1007.2 |
| 20260504022607 | 57 | 196 | 2.0 | 6.0 | 0.00 | 0.00 | 0.00 | 50 | 1007.1 |
| 20260504022101 | 57 | 188 | 2.0 | 6.0 | 0.00 | 0.00 | 0.00 | 49 | 1007.1 |
| 20260504021050 | 58 | 166 | 1.0 | 5.0 | 0.00 | 0.00 | 0.00 | 48 | 1007.1 |
| 20260504020544 | 58 | 175 | 1.0 | 5.0 | 0.00 | 0.00 | 0.00 | 47 | 1007.1 |
| 20260504020037 | 58 | 207 | 0.0 | 1.0 | 0.00 | 0.00 | 0.00 | 47 | 1007.0 |
| 20260504015532 | 58 | 207 | 1.0 | 3.0 | 0.00 | 0.00 | 0.00 | 47 | 1007.0 |
| 20260504015026 | 59 | 265 | 1.0 | 4.0 | 0.00 | 0.00 | 0.00 | 47 | 1007.0 |
| 20260504014013 | 59 | 186 | 2.0 | 8.0 | 0.00 | 0.00 | 0.00 | 46 | 1006.9 |
| 20260504013507 | 60 | 156 | 2.0 | 5.0 | 0.00 | 0.00 | 0.00 | 45 | 1006.9 |
| 20260504013002 | 60 | 209 | 1.0 | 4.0 | 0.00 | 0.00 | 0.00 | 44 | 1007.0 |
| 20260504011949 | 60 | 180 | 2.0 | 5.0 | 0.00 | 0.00 | 0.00 | 43 | 1006.9 |
| 20260504011443 | 61 | 174 | 1.0 | 4.0 | 0.00 | 0.00 | 0.00 | 43 | 1006.9 |
| 20260504010431 | 62 | 165 | 1.0 | 4.0 | 0.00 | 0.00 | 0.00 | 42 | 1006.9 |
| 20260504005925 | 62 | 163 | 1.0 | 5.0 | 0.00 | 0.00 | 0.00 | 41 | 1006.9 |
| 20260504005419 | 62 | 178 | 1.0 | 5.0 | 0.00 | 0.00 | 0.00 | 40 | 1006.9 |
| 20260504004913 | 63 | 172 | 1.0 | 5.0 | 0.00 | 0.00 | 0.00 | 40 | 1006.9 |
| 20260504004407 | 63 | 228 | 1.0 | 6.0 | 0.00 | 0.00 | 0.00 | 39 | 1006.8 |
| 20260504003902 | 64 | 186 | 2.0 | 6.0 | 0.00 | 0.00 | 0.00 | 39 | 1006.9 |
| 20260504003356 | 64 | 219 | 2.0 | 5.0 | 0.00 | 0.00 | 0.00 | 38 | 1006.9 |
| 20260504002343 | 65 | 198 | 2.0 | 7.0 | 0.00 | 0.00 | 0.00 | 37 | 1006.8 |
| 20260504001837 | 65 | 226 | 2.0 | 11.0 | 0.00 | 0.00 | 0.00 | 37 | 1006.8 |
| 20260504000825 | 65 | 231 | 2.0 | 7.0 | 0.00 | 0.00 | 0.00 | 36 | 1006.8 |
| 20260504000319 | 65 | 223 | 3.0 | 7.0 | 0.00 | 0.00 | 0.00 | 36 | 1006.9 |
| 20260503235813 | 66 | 142 | 3.0 | 10.0 | 0.00 | 0.00 | 0.00 | 36 | 1006.8 |
| 20260503235307 | 65 | 200 | 3.0 | 10.0 | 0.00 | 0.00 | 0.00 | 36 | 1006.9 |
| 20260503234801 | 65 | 206 | 3.0 | 8.0 | 0.00 | 0.00 | 0.00 | 37 | 1006.9 |
| 20260503234256 | 65 | 243 | 3.0 | 11.0 | 0.00 | 0.00 | 0.00 | 38 | 1007.0 |
| 20260503233749 | 65 | 207 | 3.0 | 7.0 | 0.00 | 0.00 | 0.00 | 37 | 1007.1 |
| 20260503233243 | 65 | 221 | 3.0 | 9.0 | 0.00 | 0.00 | 0.00 | 37 | 1007.2 |
| 20260503232738 | 65 | 194 | 3.0 | 9.0 | 0.00 | 0.00 | 0.00 | 37 | 1007.2 |
| 20260503232232 | 65 | 213 | 3.0 | 8.0 | 0.00 | 0.00 | 0.00 | 37 | 1007.3 |
| 20260503231725 | 65 | 196 | 4.0 | 10.0 | 0.00 | 0.00 | 0.00 | 37 | 1007.3 |
| 20260503231219 | 65 | 163 | 4.0 | 11.0 | 0.00 | 0.00 | 0.00 | 36 | 1007.3 |
| 20260503230713 | 65 | 232 | 4.0 | 14.0 | 0.00 | 0.00 | 0.00 | 36 | 1007.2 |
| 20260503230208 | 65 | 196 | 4.0 | 11.0 | 0.00 | 0.00 | 0.00 | 36 | 1007.4 |
| 20260503225701 | 65 | 197 | 4.0 | 9.0 | 0.00 | 0.00 | 0.00 | 36 | 1007.5 |
| 20260503225155 | 65 | 229 | 4.0 | 11.0 | 0.00 | 0.00 | 0.00 | 35 | 1007.6 |
| 20260503224649 | 66 | 0 | 5.0 | 12.0 | 0.00 | 0.00 | 0.00 | 34 | 1007.6 |
| 20260503224144 | 66 | 0 | 6.0 | 16.0 | 0.00 | 0.00 | 0.00 | 35 | 1007.7 |
| 20260503223637 | 65 | 223 | 5.0 | 16.0 | 0.00 | 0.00 | 0.00 | 35 | 1007.7 |
| 20260503222626 | 64 | 319 | 6.0 | 17.0 | 0.00 | 0.00 | 0.00 | 36 | 1007.8 |
| 20260503222120 | 64 | 240 | 5.0 | 17.0 | 0.00 | 0.00 | 0.00 | 36 | 1007.8 |
| 20260503221614 | 65 | 225 | 4.0 | 12.0 | 0.00 | 0.00 | 0.00 | 36 | 1007.8 |
| 20260503221107 | 63 | 243 | 4.0 | 12.0 | 0.00 | 0.00 | 0.00 | 37 | 1007.8 |
| 20260503220601 | 63 | 226 | 5.0 | 11.0 | 0.00 | 0.00 | 0.00 | 37 | 1008.0 |
| 20260503220055 | 63 | 214 | 5.0 | 12.0 | 0.00 | 0.00 | 0.00 | 36 | 1008.1 |
| 20260503215550 | 64 | 234 | 6.0 | 16.0 | 0.00 | 0.00 | 0.00 | 35 | 1008.0 |
| 20260503215043 | 65 | 215 | 6.0 | 15.0 | 0.00 | 0.00 | 0.00 | 34 | 1008.0 |
| 20260503214537 | 65 | 220 | 6.0 | 17.0 | 0.00 | 0.00 | 0.00 | 34 | 1007.9 |
| 20260503214031 | 65 | 200 | 6.0 | 17.0 | 0.00 | 0.00 | 0.00 | 34 | 1007.9 |
| 20260503212008 | 65 | 217 | 6.0 | 14.0 | 0.00 | 0.00 | 0.00 | 35 | 1008.3 |
| 20260503211502 | 64 | 160 | 7.0 | 23.0 | 0.00 | 0.00 | 0.00 | 33 | 1008.3 |
| 20260503210955 | 64 | 355 | 7.0 | 23.0 | 0.00 | 0.00 | 0.00 | 34 | 1008.4 |
| 20260503210449 | 65 | 218 | 7.0 | 15.0 | 0.00 | 0.00 | 0.00 | 32 | 1008.4 |
| 20260503205943 | 64 | 215 | 6.0 | 12.0 | 0.00 | 0.00 | 0.00 | 35 | 1008.4 |
| 20260503205437 | 64 | 85 | 5.0 | 14.0 | 0.00 | 0.00 | 0.00 | 34 | 1008.6 |
| 20260503204932 | 64 | 257 | 6.0 | 14.0 | 0.00 | 0.00 | 0.00 | 34 | 1008.6 |
| 20260503203919 | 65 | 0 | 6.0 | 20.0 | 0.00 | 0.00 | 0.00 | 33 | 1008.7 |
| 20260503203413 | 65 | 0 | 8.0 | 20.0 | 0.00 | 0.00 | 0.00 | 33 | 1008.7 |
| 20260503202912 | 65 | 0 | 6.0 | 19.0 | 0.00 | 0.00 | 0.00 | 33 | 1008.7 |
| 20260503202412 | 65 | 0 | 5.0 | 14.0 | 0.00 | 0.00 | 0.00 | 33 | 1008.6 |
| 20260503201912 | 65 | 147 | 5.0 | 14.0 | 0.00 | 0.00 | 0.00 | 33 | 1008.7 |
| 20260503201411 | 64 | 244 | 5.0 | 14.0 | 0.00 | 0.00 | 0.00 | 33 | 1008.9 |
| 20260503200912 | 65 | 131 | 6.0 | 18.0 | 0.00 | 0.00 | 0.00 | 34 | 1009.1 |
| 20260503200409 | 64 | 196 | 6.0 | 18.0 | 0.00 | 0.00 | 0.00 | 33 | 1009.2 |
| 20260503195909 | 64 | 160 | 6.0 | 18.0 | 0.00 | 0.00 | 0.00 | 34 | 1009.3 |
| 20260503195407 | 63 | 88 | 6.0 | 18.0 | 0.00 | 0.00 | 0.00 | 32 | 1009.3 |
| 20260503194908 | 64 | 171 | 6.0 | 21.0 | 0.00 | 0.00 | 0.00 | 31 | 1009.3 |
| 20260503194408 | 63 | 215 | 6.0 | 21.0 | 0.00 | 0.00 | 0.00 | 33 | 1009.6 |
| 20260503193909 | 63 | 234 | 6.0 | 19.0 | 0.00 | 0.00 | 0.00 | 32 | 1009.6 |
| 20260503192906 | 63 | 211 | 6.0 | 13.0 | 0.00 | 0.00 | 0.00 | 31 | 1009.9 |
| 20260503192407 | 63 | 182 | 6.0 | 19.0 | 0.00 | 0.00 | 0.00 | 31 | 1010.1 |
| 20260503191908 | 64 | 157 | 6.0 | 19.0 | 0.00 | 0.00 | 0.00 | 30 | 1010.2 |
| 20260503191402 | 64 | 256 | 6.0 | 15.0 | 0.00 | 0.00 | 0.00 | 30 | 1010.3 |
| 20260503190855 | 64 | 226 | 5.0 | 15.0 | 0.00 | 0.00 | 0.00 | 31 | 1010.2 |
| 20260503190350 | 63 | 137 | 5.0 | 19.0 | 0.00 | 0.00 | 0.00 | 32 | 1010.4 |
| 20260503185844 | 62 | 213 | 6.0 | 19.0 | 0.00 | 0.00 | 0.00 | 31 | 1010.7 |
| 20260503185342 | 62 | 198 | 5.0 | 12.0 | 0.00 | 0.00 | 0.00 | 31 | 1010.5 |
| 20260503184843 | 62 | 144 | 5.0 | 13.0 | 0.00 | 0.00 | 0.00 | 32 | 1010.8 |
| 20260503184342 | 62 | 271 | 6.0 | 13.0 | 0.00 | 0.00 | 0.00 | 31 | 1011.0 |
| 20260503183341 | 63 | 210 | 5.0 | 13.0 | 0.00 | 0.00 | 0.00 | 31 | 1011.1 |
| 20260503182841 | 64 | 269 | 5.0 | 13.0 | 0.00 | 0.00 | 0.00 | 34 | 1011.4 |
| 20260503182341 | 62 | 219 | 4.0 | 12.0 | 0.00 | 0.00 | 0.00 | 34 | 1011.4 |
| 20260503181839 | 61 | 329 | 4.0 | 13.0 | 0.00 | 0.00 | 0.00 | 35 | 1011.6 |
| 20260503181337 | 60 | 244 | 4.0 | 13.0 | 0.00 | 0.00 | 0.00 | 34 | 1011.9 |
| 20260503180837 | 60 | 241 | 4.0 | 11.0 | 0.00 | 0.00 | 0.00 | 35 | 1012.1 |
| 20260503174837 | 59 | 254 | 4.0 | 10.0 | 0.00 | 0.00 | 0.00 | 36 | 1012.6 |
| 20260503173837 | 59 | 196 | 5.0 | 12.0 | 0.00 | 0.00 | 0.00 | 35 | 1012.5 |
| 20260503173337 | 60 | 224 | 4.0 | 10.0 | 0.00 | 0.00 | 0.00 | 34 | 1012.5 |
| 20260503172838 | 60 | 227 | 3.0 | 9.0 | 0.00 | 0.00 | 0.00 | 36 | 1012.6 |
| 20260503172337 | 60 | 215 | 4.0 | 14.0 | 0.00 | 0.00 | 0.00 | 35 | 1012.6 |
| 20260503171838 | 60 | 210 | 4.0 | 14.0 | 0.00 | 0.00 | 0.00 | 34 | 1012.6 |
| 20260503170834 | 60 | 221 | 3.0 | 9.0 | 0.00 | 0.00 | 0.00 | 36 | 1012.7 |
| 20260503150825 | 56 | 200 | 4.0 | 9.0 | 0.00 | 0.00 | 0.00 | 44 | 1014.2 |
| 20260503150327 | 56 | 301 | 4.0 | 10.0 | 0.00 | 0.00 | 0.00 | 44 | 1014.3 |
| 20260503131316 | 51 | 219 | 4.0 | 12.0 | 0.00 | 0.00 | 0.00 | 47 | 1015.4 |
| 20260503130813 | 51 | 214 | 4.0 | 11.0 | 0.00 | 0.00 | 0.00 | 49 | 1015.4 |
| 20260503110804 | 41 | 161 | 1.0 | 6.0 | 0.00 | 0.00 | 0.00 | 56 | 1014.9 |
| 20260503110304 | 41 | 225 | 1.0 | 5.0 | 0.00 | 0.00 | 0.00 | 55 | 1015.0 |
| 20260503100228 | 41 | 158 | 2.0 | 7.0 | 0.00 | 0.00 | 0.00 | 54 | 1015.1 |
| 20260503090139 | 41 | 182 | 1.0 | 6.0 | 0.00 | 0.00 | 0.00 | 52 | 1015.1 |
| 20260503081634 | 41 | 261 | 1.0 | 5.0 | 0.00 | 0.00 | 0.00 | 52 | 1015.2 |
| 20260503081136 | 41 | 215 | 2.0 | 6.0 | 0.00 | 0.00 | 0.00 | 52 | 1015.2 |
| 20260503080636 | 41 | 219 | 2.0 | 6.0 | 0.00 | 0.00 | 0.00 | 52 | 1015.3 |
| 20260503080130 | 41 | 181 | 1.0 | 6.0 | 0.00 | 0.00 | 0.00 | 52 | 1015.4 |
| 20260503072548 | 41 | 202 | 1.0 | 4.0 | 0.00 | 0.00 | 0.00 | 53 | 1015.4 |
| 20260503072042 | 41 | 311 | 1.0 | 4.0 | 0.00 | 0.00 | 0.00 | 53 | 1015.4 |
| 20260503071536 | 41 | 221 | 1.0 | 3.0 | 0.00 | 0.00 | 0.00 | 53 | 1015.4 |
| 20260503071030 | 41 | 204 | 0.0 | 3.0 | 0.00 | 0.00 | 0.00 | 53 | 1015.4 |
| 20260503054346 | 42 | 319 | 0.0 | 0.0 | 0.00 | 0.00 | 0.00 | 51 | 1016.1 |
| 20260503053840 | 42 | 319 | 0.0 | 0.0 | 0.00 | 0.00 | 0.00 | 50 | 1016.2 |
| 20260503052827 | 42 | 319 | 0.0 | 0.0 | 0.00 | 0.00 | 0.00 | 50 | 1016.3 |
| 20260503052320 | 42 | 319 | 0.0 | 0.0 | 0.00 | 0.00 | 0.00 | 50 | 1016.4 |
| 20260503051815 | 42 | 319 | 0.0 | 2.0 | 0.00 | 0.00 | 0.00 | 50 | 1016.3 |
| 20260503051309 | 42 | 319 | 0.0 | 2.0 | 0.00 | 0.00 | 0.00 | 49 | 1016.4 |
| 20260503050802 | 42 | 319 | 0.0 | 2.0 | 0.00 | 0.00 | 0.00 | 49 | 1016.4 |
| 20260503050257 | 42 | 319 | 0.0 | 1.0 | 0.00 | 0.00 | 0.00 | 49 | 1016.4 |
| 20260503045750 | 42 | 319 | 0.0 | 2.0 | 0.00 | 0.00 | 0.00 | 49 | 1016.4 |
| 20260503044232 | 42 | 319 | 0.0 | 1.0 | 0.00 | 0.00 | 0.00 | 49 | 1016.3 |
| 20260503043726 | 42 | 319 | 0.0 | 1.0 | 0.00 | 0.00 | 0.00 | 49 | 1016.3 |
| 20260503042713 | 42 | 319 | 0.0 | 3.0 | 0.00 | 0.00 | 0.00 | 49 | 1016.3 |
| 20260503041156 | 42 | 323 | 0.0 | 0.0 | 0.00 | 0.00 | 0.00 | 48 | 1016.3 |
| 20260503040143 | 42 | 323 | 0.0 | 0.0 | 0.00 | 0.00 | 0.00 | 49 | 1016.3 |
| 20260503035132 | 43 | 323 | 0.0 | 0.0 | 0.00 | 0.00 | 0.00 | 49 | 1016.4 |
| 20260503034119 | 43 | 323 | 0.0 | 0.0 | 0.00 | 0.00 | 0.00 | 50 | 1016.4 |
| 20260503033613 | 43 | 323 | 0.0 | 0.0 | 0.00 | 0.00 | 0.00 | 50 | 1016.4 |
| 20260503033107 | 43 | 323 | 0.0 | 0.0 | 0.00 | 0.00 | 0.00 | 50 | 1016.4 |
| 20260503032601 | 43 | 323 | 0.0 | 0.0 | 0.00 | 0.00 | 0.00 | 50 | 1016.4 |
| 20260503032055 | 43 | 323 | 0.0 | 0.0 | 0.00 | 0.00 | 0.00 | 50 | 1016.5 |
| 20260503031044 | 44 | 323 | 0.0 | 0.0 | 0.00 | 0.00 | 0.00 | 50 | 1016.6 |
| 20260503030538 | 44 | 323 | 0.0 | 0.0 | 0.00 | 0.00 | 0.00 | 50 | 1016.6 |